CAPE
1101 1229 1104 858 599 254 153 85 20 18 2 11 43 38 2 15 2 15 77 99 42 21 96 186 138 93 8 5 2 0 4 51 39 21 4 0 0 0 2 0 0 0
1188 949 680 746 376 121 205 135 35 2 21 58 37 21 6 16 17 8 7 1 0 0 0 0 3 0 0 0 0 0 0 0 0 0 0 0 0 0 0 0 0 0
1222 883 798 732 573 690 410 242 109 100 377 142 36 3 6 34 3 36 9 0 0 0 0 0 0 0 0 0 0 0 0 0 0 0 0 0 0 0 0 0 0 0
616 497 578 444 22 18 60 35 30 8 8 30 26 10 0 6 0 0 0 0 0 0 0 0 0 0 0 0 0 0 0 0 0 0 0 0 0 0 0 0 0 0
719 629 420 204 286 35 18 5 213 50 25 71 51 1 0 0 0 0 0 0 0 0 0 0 0 0 0 0 0 0 0 0 0 0 0 0 0 0 0 0 0 0
720 509 270 401 588 249 9 26 29 213 75 5 25 5 0 0 0 0 0 0 0 0 0 0 0 0 0 0 0 0 0 0 0 0 0 0 0 0 0 0 0 0
579 311 208 342 329 147 20 58 299 88 27 20 14 12 0 0 0 0 0 0 0 0 0 0 0 0 0 0 0 0 0 0 0 0 0 0 0 0 0 0 0 0
806 532 423 246 370 315 260 378 294 151 116 55 20 0 0 0 0 0 0 0 0 0 0 0 0 0 0 0 0 0 0 0 0 0 0 0 0 0 0 0 0 0
804 579 331 176 343 401 445 272 313 344 129 89 20 18 1 0 0 0 0 0 0 0 0 0 0 0 0 0 0 0 0 0 0 0 0 0 0 0 0 0 0 0
629 389 208 132 528 509 618 540 459 481 259 210 68 65 0 102 11 0 0 0 0 0 0 0 0 0 0 0 0 0 0 0 0 0 0 0 0 0 0 0 0 0
769 713 559 458 543 553 828 728 663 548 353 323 278 181 20 12 11 0 0 0 0 0 0 0 0 0 0 0 0 0 0 0 0 0 0 0 0 0 0 0 0 0
741 614 530 522 529 610 753 702 664 610 514 437 363 266 197 79 0 0 0 0 0 0 0 0 0 0 0 0 0 2 14 22 21 16 13 1 2 0 0 0 0 0
886 671 724 655 722 747 828 696 657 676 585 504 406 416 350 220 49 12 0 0 0 0 0 0 0 0 0 8 38 144 255 302 335 402 370 418 212 100 71 38 35 6
1125 967 751 753 826 862 913 735 669 693 595 534 452 511 470 320 209 85 44 2 7 10 2 3 7 4 35 114 223 401 390 398 485 638 648 556 543 505 558 276 114 77
973 1014 930 855 781 764 837 800 620 675 616 606 563 555 541 465 386 253 142 83 197 202 312 291 239 372 427 370 496 212 201 252 296 275 298 325 441 438 368 388 373 560
1030 1098 1129 1072 916 806 559 603 786 732 629 561 558 506 596 506 497 427 374 339 364 391 380 654 808 949 755 241 320 277 505 329 237 127 58 138 362 535 613 657 429 480
858 864 914 997 993 964 951 849 786 772 833 667 611 604 632 556 542 555 474 399 365 486 824 743 604 314 0 0 0 1 162 433 223 85 71 150 357 662 875 998 923 878
855 811 807 839 843 886 858 824 823 708 672 701 580 669 800 746 588 84 492 562 544 752 590 477 377 138 0 0 0 0 14 42 39 26 76 192 342 537 604 441 311 464
768 782 790 702 764 667 708 749 709 763 754 680 611 747 593 81 76 61 514 284 402 329 283 276 152 10 0 0 0 0 0 51 186 307 483 573 463 276 183 87 163 131
560 650 740 741 690 609 574 584 726 765 774 817 783 764 597 610 155 135 96 38 68 170 142 210 299 32 1 0 0 0 0 31 279 620 657 356 311 289 193 191 153 116
294 572 649 740 819 734 641 646 661 772 792 871 851 795 667 534 527 102 101 64 99 451 551 404 405 386 59 0 1 2 1 7 568 444 181 194 166 87 79 61 69 77
0 0 59 321 668 742 702 856 925 851 873 811 788 854 844 717 527 580 411 100 576 641 780 558 1802 482 132 0 0 1 0 31 185 61 78 3 39 4 12 8 5 15
0 0 0 2 100 366 601 708 814 893 975 960 961 882 717 624 610 581 459 441 379 503 690 831 713 290 49 2 1 1 0 75 66 30 7 9 28 4 0 0 0 0
0 0 0 0 0 60 220 415 625 801 964 876 873 907 808 721 638 497 526 546 566 523 354 37 236 151 12 24 18 1 7 61 126 134 1 3 0 0 0 0 0 0
0 0 0 0 0 0 31 233 511 728 768 868 890 964 985 872 620 591 660 547 399 46 20 324 139 20 35 32 17 50 30 3 13 2 3 0 0 0 0 0 0 0
0 0 0 0 0 0 1 67 190 568 806 818 830 841 937 894 662 557 533 428 362 325 240 62 15 259 43 60 68 80 62 36 35 11 8 0 0 0 0 0 0 0
Wind_Speed
20 20 18 17 17 18 18 nan nan nan nan nan nan nan nan nan nan nan nan nan nan nan nan 25 23 nan nan nan nan nan nan nan nan nan nan nan nan nan nan nan nan nan
19 22 20 20 21 20 21 22 nan nan nan nan nan nan nan nan nan nan nan nan nan nan nan nan nan nan nan nan nan nan nan nan nan nan nan nan nan nan nan nan nan nan
21 21 21 22 22 21 20 21 25 26 27 31 nan nan nan nan nan nan nan nan nan nan nan nan nan nan nan nan nan nan nan nan nan nan nan nan nan nan nan nan nan nan
21 21 23 23 nan nan nan nan nan nan nan nan nan nan nan nan nan nan nan nan nan nan nan nan nan nan nan nan nan nan nan nan nan nan nan nan nan nan nan nan nan nan
20 21 23 23 20 nan nan nan 21 nan nan nan nan nan nan nan nan nan nan nan nan nan nan nan nan nan nan nan nan nan nan nan nan nan nan nan nan nan nan nan nan nan
21 21 20 19 17 15 nan nan nan 22 nan nan nan nan nan nan nan nan nan nan nan nan nan nan nan nan nan nan nan nan nan nan nan nan nan nan nan nan nan nan nan nan
23 20 18 15 15 14 nan nan 15 nan nan nan nan nan nan nan nan nan nan nan nan nan nan nan nan nan nan nan nan nan nan nan nan nan nan nan nan nan nan nan nan nan
22 19 17 14 16 15 14 15 17 19 21 nan nan nan nan nan nan nan nan nan nan nan nan nan nan nan nan nan nan nan nan nan nan nan nan nan nan nan nan nan nan nan
18 17 16 15 16 16 15 16 18 19 20 nan nan nan nan nan nan nan nan nan nan nan nan nan nan nan nan nan nan nan nan nan nan nan nan nan nan nan nan nan nan nan
16 15 14 14 14 14 15 15 17 17 17 16 nan nan nan 16 nan nan nan nan nan nan nan nan nan nan nan nan nan nan nan nan nan nan nan nan nan nan nan nan nan nan
18 18 17 15 13 12 14 15 17 17 16 16 17 17 nan nan nan nan nan nan nan nan nan nan nan nan nan nan nan nan nan nan nan nan nan nan nan nan nan nan nan nan
18 17 16 14 12 11 14 15 16 17 17 17 17 18 19 nan nan nan nan nan nan nan nan nan nan nan nan nan nan nan nan nan nan nan nan nan nan nan nan nan nan nan
21 19 16 13 13 13 15 17 17 18 18 17 17 19 21 21 nan nan nan nan nan nan nan nan nan nan nan nan nan 23 23 25 26 26 25 25 23 22 nan nan nan nan
22 20 18 16 16 17 18 18 20 21 20 20 20 20 21 24 25 nan nan nan nan nan nan nan nan nan nan 26 26 26 25 25 27 27 28 28 27 26 24 24 23 nan
21 21 21 21 21 20 21 22 22 22 23 23 25 24 25 26 27 27 27 nan 26 26 28 28 28 29 29 27 28 27 26 26 27 28 29 29 28 27 27 28 25 22
24 24 24 24 24 24 24 25 26 27 26 26 26 27 28 28 29 29 28 28 28 28 29 30 31 32 36 35 30 29 30 29 26 26 nan 26 24 24 25 27 26 23
30 29 29 28 29 28 28 28 28 29 28 27 28 29 31 32 32 32 32 32 33 34 34 34 34 35 nan nan nan nan 30 28 26 nan nan 21 19 20 22 24 26 28
35 36 35 35 33 33 32 32 32 31 32 31 31 33 35 37 37 nan 35 36 37 38 36 34 33 33 nan nan nan nan nan nan nan nan nan 25 24 25 25 25 27 30
39 40 41 40 40 40 39 37 35 34 34 35 35 37 39 nan nan nan 39 39 38 37 35 33 30 nan nan nan nan nan nan nan 32 32 31 31 32 31 30 nan 32 34
43 44 43 43 43 42 42 41 39 36 35 35 36 38 37 38 40 40 nan nan nan 36 35 33 30 nan nan nan nan nan nan nan 35 36 34 35 35 35 34 32 34 34
45 45 44 44 43 43 41 39 36 33 31 32 33 34 35 36 37 38 38 nan nan 36 35 34 33 42 nan nan nan nan nan nan 36 38 37 37 38 nan nan nan nan nan
nan nan nan 39 38 36 34 32 31 33 33 34 34 35 36 36 37 38 39 38 37 36 36 35 45 50 48 nan nan nan nan nan 38 nan nan nan nan nan nan nan nan nan
nan nan nan nan nan 34 32 33 34 37 38 38 37 36 36 36 38 39 39 38 37 38 37 40 46 49 nan nan nan nan nan nan nan nan nan nan nan nan nan nan nan nan
nan nan nan nan nan nan 43 43 43 42 40 40 39 40 39 39 41 41 42 42 42 42 43 nan 46 51 nan nan nan nan nan nan 44 42 nan nan nan nan nan nan nan nan
nan nan nan nan nan nan nan 51 49 48 47 46 46 45 45 46 46 44 43 43 43 nan nan 45 43 nan nan nan nan nan nan nan nan nan nan nan nan nan nan nan nan nan
nan nan nan nan nan nan nan nan 56 55 53 51 50 49 49 49 48 46 43 43 45 45 49 nan nan 36 nan nan nan nan nan nan nan nan nan nan nan nan nan nan nan nan
Wind_Direction
297 293 292 287 279 282 286 nan nan nan nan nan nan nan nan nan nan nan nan nan nan nan nan 269 264 nan nan nan nan nan nan nan nan nan nan nan nan nan nan nan nan nan
283 274 275 282 284 284 284 286 nan nan nan nan nan nan nan nan nan nan nan nan nan nan nan nan nan nan nan nan nan nan nan nan nan nan nan nan nan nan nan nan nan nan
275 279 281 280 284 291 295 295 292 287 284 280 nan nan nan nan nan nan nan nan nan nan nan nan nan nan nan nan nan nan nan nan nan nan nan nan nan nan nan nan nan nan
287 292 289 289 nan nan nan nan nan nan nan nan nan nan nan nan nan nan nan nan nan nan nan nan nan nan nan nan nan nan nan nan nan nan nan nan nan nan nan nan nan nan
297 292 293 299 309 nan nan nan 318 nan nan nan nan nan nan nan nan nan nan nan nan nan nan nan nan nan nan nan nan nan nan nan nan nan nan nan nan nan nan nan nan nan
285 289 294 302 308 320 nan nan nan 312 nan nan nan nan nan nan nan nan nan nan nan nan nan nan nan nan nan nan nan nan nan nan nan nan nan nan nan nan nan nan nan nan
285 289 299 299 306 311 nan nan 310 nan nan nan nan nan nan nan nan nan nan nan nan nan nan nan nan nan nan nan nan nan nan nan nan nan nan nan nan nan nan nan nan nan
286 292 299 300 304 306 307 308 302 304 308 nan nan nan nan nan nan nan nan nan nan nan nan nan nan nan nan nan nan nan nan nan nan nan nan nan nan nan nan nan nan nan
292 294 300 306 309 308 311 309 307 313 317 nan nan nan nan nan nan nan nan nan nan nan nan nan nan nan nan nan nan nan nan nan nan nan nan nan nan nan nan nan nan nan
296 300 316 318 311 307 309 307 304 309 313 311 nan nan nan 287 nan nan nan nan nan nan nan nan nan nan nan nan nan nan nan nan nan nan nan nan nan nan nan nan nan nan
305 311 318 322 318 308 305 303 302 302 300 302 298 297 nan nan nan nan nan nan nan nan nan nan nan nan nan nan nan nan nan nan nan nan nan nan nan nan nan nan nan nan
302 310 315 319 312 300 302 299 299 299 298 296 294 292 290 nan nan nan nan nan nan nan nan nan nan nan nan nan nan nan nan nan nan nan nan nan nan nan nan nan nan nan
294 299 301 300 293 290 292 294 294 295 297 295 291 291 292 294 nan nan nan nan nan nan nan nan nan nan nan nan nan 268 267 268 269 266 264 262 260 261 nan nan nan nan
285 287 290 291 287 287 288 288 288 290 291 290 290 290 292 296 298 nan nan nan nan nan nan nan nan nan nan 266 267 268 266 264 266 266 261 257 256 256 258 257 258 nan
281 283 285 288 289 288 288 287 287 286 286 287 288 288 288 292 294 296 296 nan 292 292 290 286 279 270 265 264 266 267 263 261 260 257 251 248 247 249 251 251 252 251
278 279 282 285 286 287 287 286 285 285 285 285 286 288 289 289 290 291 293 295 294 293 291 286 277 265 255 253 256 261 261 262 263 257 nan 245 244 248 254 259 257 262
272 272 272 274 277 279 280 282 284 284 283 283 283 286 288 287 285 286 288 288 288 286 285 282 277 271 nan nan nan nan 261 264 264 nan nan 262 259 258 259 257 261 260
270 270 269 268 267 269 271 272 273 277 281 282 284 286 284 282 283 nan 285 282 280 282 281 277 275 273 nan nan nan nan nan nan nan nan nan 273 267 265 264 260 256 257
268 267 266 264 263 263 263 264 266 270 275 278 282 281 281 nan nan nan 284 280 278 278 275 272 273 nan nan nan nan nan nan nan 277 279 276 274 274 272 268 nan 261 262
270 269 267 266 265 263 262 263 265 267 269 272 276 281 281 281 282 283 nan nan nan 280 277 272 271 nan nan nan nan nan nan nan 275 277 273 273 274 274 272 269 267 267
269 269 269 268 267 266 265 265 265 266 271 275 278 281 282 283 284 283 280 nan nan 277 274 271 266 276 nan nan nan nan nan nan 274 274 273 271 270 nan nan nan nan nan
nan nan nan 267 267 266 265 266 267 273 278 279 279 280 281 282 284 283 280 277 274 273 268 266 263 272 273 nan nan nan nan nan 276 nan nan nan nan nan nan nan nan nan
nan nan nan nan nan 262 265 268 273 279 281 279 278 277 278 281 284 283 277 271 269 267 266 261 263 268 nan nan nan nan nan nan nan nan nan nan nan nan nan nan nan nan
nan nan nan nan nan nan 264 266 269 273 276 276 276 276 277 279 279 279 276 272 268 264 260 nan 268 267 nan nan nan nan nan nan 268 267 nan nan nan nan nan nan nan nan
nan nan nan nan nan nan nan 266 267 269 270 272 273 274 274 275 277 276 274 270 268 nan nan 264 266 nan nan nan nan nan nan nan nan nan nan nan nan nan nan nan nan nan
nan nan nan nan nan nan nan nan 269 270 271 273 274 274 274 274 274 272 270 266 265 265 262 nan nan 262 nan nan nan nan nan nan nan nan nan nan nan nan nan nan nan nan